Regional Weather Roundup
Issued by NWS

Home | Current Version | Previous Version | Graphics & Text | Print | Product List | Glossary On
Versions: 1 2 3 4 5 6 7 8 9 10 11 12 13 14 15 16 17 18 19 20 21 22 23 24 25 26 27 28 29 30 31 32 33 34 35 36 37 38 39 40 41 42 43 44 45 46 47 48 49 50
000
ASUS43 KMPX 281001
RWRMN
WEATHER ROUNDUP FOR MINNESOTA
NATIONAL WEATHER SERVICE TWIN CITIES/CHANHASSEN MN
400 AM CST TUE FEB 28 2017


NOTE: "FAIR" INDICATES FEW OR NO CLOUDS BELOW 12,000 FEET WITH NO
SIGNIFICANT WEATHER AND/OR OBSTRUCTIONS TO VISIBILITY. N/A MEANS
CURRENT SKY AND/OR WEATHER CONDITIONS ARE NOT AVAILABLE.

MNZ060>063-068>070-281100-
   Twin Cities Metro

CITY           SKY/WX    TMP DP  RH WIND       PRES   REMARKS
TWIN CITIES    CLOUDY    37  29  72 E5        29.73F
ST PAUL        CLOUDY    37  31  78 CALM      29.74F
CRYSTAL        CLOUDY    34  27  75 CALM      29.72F
BLAINE         CLOUDY    34  28  80 CALM      29.73F
LAKEVILLE        N/A     34  30  86 CALM      29.73F
EDEN PRAIRIE   CLOUDY    37  29  72 E5        29.72F
SOUTH ST PAUL  CLOUDY    39  31  73 CALM      29.73F
LAKE ELMO      CLOUDY    36  32  87 NE3       29.74F
$$
MNZ001>005-007-008-013>017-022>024-027-028-281100-
   Northwest Minnesota

CITY           SKY/WX    TMP DP  RH WIND       PRES   REMARKS
BEMIDJI        CLOUDY    22  14  70 N6        29.83R WCI  15
HALLOCK        CLEAR      7   1  78 N8        29.96S WCI  -6
ROSEAU         FLURRIES   5   1  85 N10       29.93S WCI -10
WARROAD        FLURRIES  12   9  85 N8        29.93S WCI   1
THIEF RVR FALL CLOUDY    19  15  84 NE12      29.89F WCI   7
CROOKSTON      CLOUDY    19  16  86 NE9       29.91S WCI   9
FOSSTON        CLOUDY    18  12  79 N9        29.85S WCI   6
DETROIT LAKES  CLOUDY    27  19  74 NE6       29.80F WCI  20
MOORHEAD       CLOUDY    21  19  93 N14       29.84F WCI   8
PARK RAPIDS    CLOUDY    27  14  58 N9        29.79S WCI  18
MAHNOMEN       FAIR      22  16  78 NE10      29.82F WCI  11
$$
MNZ006-009>011-018-025>026-281100-
   North Central Minnesota

CITY           SKY/WX    TMP DP  RH WIND       PRES   REMARKS
BAUDETTE       CLOUDY    17  13  84 N9        29.90R WCI   6
FLAG ISLAND    CLOUDY     9   5  85 N12       29.94S WCI  -6
INTL FALLS     CLOUDY    21  17  84 NE6       29.88R WCI  13
WASKISH        CLOUDY    21  18  86 NE8       29.87S WCI  12
BIG FORK       CLOUDY    25  19  80 N5        29.83R WCI  19
LONGVILLE      CLOUDY    27  23  86 CALM      29.80R
GRAND RAPIDS   CLOUDY    28  23  81 N5        29.81R WCI  23
CRANE LAKE     FLURRIES  21  19  93 N3        29.88S
ORR            CLOUDY    23  19  86 CALM      29.81S
COOK           CLOUDY    25  21  86 CALM      29.82S
WALKER         FAIR      25  16  68 N8        29.81R WCI  16
$$
MNZ012-019>021-037-281100-
   Northeast Minnesota

CITY           SKY/WX    TMP DP  RH WIND       PRES   REMARKS
DULUTH         LGT SNOW  29  26  89 E5        29.80S FOG     WCI  24
ELY            FLURRIES  25  23  93 CALM      29.81S
HIBBING        CLOUDY    28  26  92 CALM      29.79F
EVELETH        MIX PCPN  30  28  90 CALM      29.80S
DULUTH HARBOR  MIX PCPN  32  30  93 NE13      29.85R WCI  22
TWO HARBORS    CLOUDY    30  27  86 CALM      29.80S
SILVER BAY     CLOUDY    28  27  93 N3        29.80F
GRAND MARAIS     N/A     32  25  75 VRB3      29.84F
G MARAIS ARPRT CLOUDY    21  18  86 N3        29.79F
$$
MNZ029>031-032-039>041-046>048-054>057-064-281100-
   West Central Minnesota

CITY           SKY/WX    TMP DP  RH WIND       PRES   REMARKS
FERGUS FALLS   CLOUDY    27  21  80 N8        29.82F WCI  18
WHEATON        FLURRIES  27  23  86 N9        29.81S WCI  17
MORRIS         MIX PCPN  30  28  93 N9        29.74F WCI  22
ALEXANDRIA     CLOUDY    32  28  85 NE6       29.75F WCI  26
ELBOW LAKE     CLOUDY    30  27  89 N3        29.77F
WADENA         CLOUDY    28  23  80 N5        29.77F WCI  23
GLENWOOD       FLURRIES  30  30 100 N5        29.75F WCI  25
APPLETON       PTCLDY    34  28  80 N13       29.75S WCI  25
BENSON         CLOUDY    36  28  75 N8        29.75F
ORTONVILLE     LGT SNOW  28  25  86 N10       29.76S WCI  19
MADISON        CLOUDY    34  34 100 N13       29.75S WCI  25
WILLMAR        FAIR      34  30  86 NE5       29.73F WCI  30
$$
MNZ033>034-036-042>043-049>051-058-059-281100-
   Central Minnesota

CITY           SKY/WX    TMP DP  RH WIND       PRES   REMARKS
ST CLOUD       CLOUDY    34  28  79 N5        29.76F WCI  30
SAUK CENTRE    LGT SNOW  32  30  94 N6        29.75F WCI  26
PAYNESVILLE    CLOUDY    33  30  90 NE6       29.74F WCI  27
AITKIN         CLOUDY    34  25  69 CALM      29.78R
PINE RIVER     CLOUDY    28  23  80 N7        29.83S WCI  21
BRAINERD       CLOUDY    32  26  78 CALM      29.79R
STAPLES        CLOUDY    30  27  86 CALM      29.77F
LONG PRAIRIE   LGT SNOW  32  30  93 N3        29.76F
LITTLE FALLS   LGT SNOW  32  30  93 CALM      29.77F
LITCHFIELD     CLOUDY    36  30  80 N5        29.74F
BUFFALO        CLOUDY    34  28  80 NW6       29.77S WCI  29
MAPLE LAKE     CLOUDY    33  30  88 CALM      29.75F
HUTCHINSON     CLOUDY    36  32  87 NE6       29.74F
$$
MNZ037-044-045-052-053-281100-
   East Central Minnesota

CITY           SKY/WX    TMP DP  RH WIND       PRES   REMARKS
PRINCETON      DRIZZLE   34  28  80 N6        29.77F WCI  29
MORA           LGT SNOW  32  27  80 CALM      29.81F
CAMBRIDGE      CLOUDY    36  27  69 N3        29.75F
RUSH CITY      CLOUDY    33  27  77 N6        29.79S WCI  27
MOOSE LAKE     LGT SNOW  28  27  93 CALM      29.81R
HINCKLEY       FLURRIES  32  27  80 N3        29.80R
CLOQUET        LGT SNOW  28  27  93 E3        29.81R
MCGREGOR       CLOUDY    32  28  86 SE3       29.80R
$$
MNZ071>073-080-081-089-090-097-098-281100-
   Southwest Minnesota

CITY           SKY/WX    TMP DP  RH WIND       PRES   REMARKS
MONTEVIDEO     CLOUDY    32  30  93 NE7       29.75F WCI  26
GRANITE FALLS  CLOUDY    34  32  91 NW5       29.73F WCI  30
CANBY          CLOUDY    32  30  93 N10       29.74F WCI  24
MARSHALL       PTCLDY    31  29  92 NW6       29.72F WCI  25
REDWOOD FALLS  CLOUDY    34  29  82 NE8       29.70F WCI  27
OLIVIA         CLOUDY    34  32  93 NE5       29.71F WCI  30
PIPESTONE      PTCLDY    34  28  80 NE9       29.65F WCI  26
WINDOM         PTCLDY    36  30  80 CALM      29.66F
WORTHINGTON    CLOUDY    30  28  92 NW3       29.65F
JACKSON        CLOUDY    30  28  93 CALM      29.66F
TRACY          PTCLDY    32  31  97 N6        29.70F FOG     WCI  26
SLAYTON        PTCLDY    31  30  96 N8        29.68F FOG     WCI  23
$$
MNZ065>067-074>077-082>085-091>093-281100-
   South Central Minnesota

CITY           SKY/WX    TMP DP  RH WIND       PRES   REMARKS
MANKATO          N/A     36  31  82 E3        29.71F
NEW ULM        CLOUDY    36  28  75 NE5       29.69F
ST JAMES       PTCLDY    32  30  93 CALM      29.69F
FAIRMONT       CLOUDY    32  29  88 E3        29.67F
GLENCOE        CLOUDY    36  33  90 N7        29.73S
FARIBAULT      CLOUDY    32  30  93 CALM      29.73S
OWATONNA       CLOUDY    37  34  87 SE10      29.71F
WASECA         PTCLDY    36  32  87 SE9       29.71F
ALBERT LEA     CLOUDY    37  34  87 SE6       29.69F
$$
MNZ078>079-086>088-094>096-281100-
   Southeast Minnesota

CITY           SKY/WX    TMP DP  RH WIND       PRES   REMARKS
ROCHESTER      CLOUDY    37  34  89 SE14      29.72F
RED WING       CLOUDY    41  30  65 SE7       29.73F
STANTON        CLOUDY    40  33  77 CALM      29.72F
WINONA         CLOUDY    37  34  87 S5        29.77F
AUSTIN         CLOUDY    37  32  81 SE9       29.71F
PRESTON        CLOUDY    39  33  80 SE9       29.74F
$$
ABBREVIATIONS USED IN REMARKS
   TC - TEMPERATURES IN CELSIUS
  WCI - WIND CHILL INDEX
   HX - HEAT INDEX
  VSB - VISIBILITY
$$



USA.gov is the U.S. government's official web portal to all federal, state and local government web resources and services.